Regional Weather Roundup
Issued by NWS Charleston, SC

Current Version | Previous Version | Graphics & Text | Print | Product List | Glossary On
Versions: 1 2 3 4 5 6 7 8 9 10 11 12 13 14 15 16 17 18 19 20 21 22 23 24 25 26 27 28 29 30 31 32 33 34 35 36 37 38 39 40 41 42 43 44 45 46 47 48 49 50
000
ASUS42 KCHS 262227
RWRCHS

REGIONAL WEATHER ROUNDUP
NATIONAL WEATHER SERVICE CHARLESTON SC
600 PM EDT SUN APR 26 2015

NOTE: "FAIR" INDICATES FEW OR NO CLOUDS BELOW 12,000 FEET WITH NO
SIGNIFICANT WEATHER AND/OR OBSTRUCTIONS TO VISIBILITY.

NOT ALL STATIONS ARE QUALITY CONTROLLED BY THE NATIONAL
WEATHER SERVICE. USE DATA WITH CAUTION...ESPECIALLY
DEWPOINT OBSERVATIONS.

SCZ027-030-031-034>040-042>050-262300-
...SOUTHEAST SOUTH CAROLINA...

CITY           SKY/WX    TMP DP  RH WIND       PRES   REMARKS
N CHARLESTON   MOSUNNY   86  55  34 W13G23    29.58R
WATERFRONT PRK   N/A     86 N/A N/A W12G20      N/A
MOUNT PLEASANT FAIR      86  57  37 MISG      29.59R
PINOPOLIS      NOT AVBL
MONCKS CORNER  MOCLDY    79  66  65 NE6       29.59R
SUMMERVILLE    MOCLDY    86  59  39 SW9G16    29.59R
BEAUFORT MCAS  SUNNY     86  56  35 W16       29.60R
BEAUFORT ARPT  FAIR      86  61  42 W8        29.60S HAZE
HILTON HEAD IS MOSUNNY   88  55  33 W12G22    29.62R
WALTERBORO     CLEAR     82  55  39 W12       29.59S
ALLENDALE      FAIR      84  61  45 VRB5G17   29.60S

...SOUTHERN MIDLANDS AND PEE DEE...

CITY           SKY/WX    TMP DP  RH WIND       PRES   REMARKS
GEORGETOWN     NOT AVBL
KINGSTREE      NOT AVBL
ORANGEBURG     PTSUNNY   75  60  59 NE17G25   29.60R
BARNWELL       FAIR      84  59  42 W10       29.60S
AIKEN          MOCLDY    81  54  39 W10       29.64R
MANNING        FAIR      68  46  45 N12G20    29.63R
COLUMBIA       PTSUNNY   69  56  62 NE10      29.63R
SUMTER         TSTM      61  55  82 NE12      29.64R
FLORENCE       PTSUNNY   61  52  72 N14       29.67R
MYRTLE BEACH   PTSUNNY   68  55  64 NE9       29.65S
N MYRTLE BEACH CLOUDY    66  55  67 NE8       29.63F

$$

GAZ063-065-086>088-099>101-113>116-118-119-134>141-150-262300-
...SOUTHEAST GEORGIA...

CITY           SKY/WX    TMP DP  RH WIND       PRES   REMARKS
SAVANNAH ARPT  MOSUNNY   86  53  32 W15G24    29.61S
HUNTER AAF     SUNNY     87  56  34 W17       29.59S
FORT STEWART   SUNNY     87  53  30 W16G26    29.61S
STATESBORO       N/A     85  59  42 W12       29.62R
SYLVANIA       CLEAR     84  63  47 W7        29.62S
CLAXTON        FAIR      84  57  39 W13       29.62S

...CSRA...CENTRAL AND FAR SOUTHEAST GEORGIA...

CITY           SKY/WX    TMP DP  RH WIND       PRES   REMARKS
THOMSON        MOSUNNY   82  66  58 W3        29.65S
AUGUSTA-BUSH   MOSUNNY   84  58  40 W12       29.59S
AUGUSTA-DANIEL SUNNY     84  60  44 W6        29.61S
SWAINSBORO     NOT AVBL
VIDALIA        SUNNY     84  59  42 W10G20    29.65R
EASTMAN        FAIR      85  60  42 W9        29.68S
HAZLEHURST     FAIR      87  54  32 W10G18    29.65R
ALMA           SUNNY     86  60  41 W14       29.66S
WAYCROSS       MOSUNNY   90  64  42 W13       29.65S HX  91
JESUP          FAIR      88  64  45 W7G16     29.65S
BAXLEY         FAIR      88  59  37 W12G21    29.65R
BRUNSWICK      SUNNY     88  55  33 W10G21    29.64S
SAINT SIMONS   SUNNY     88  58  36 W12       29.64S

$$

SCZ027-028-034-036>038-045-046-048>050-GAZ119-141-262300-
...LAKE AND SUPPLEMENTAL COASTAL OBSERVATIONS...

STATION/POSITION TIME  TEMP    WIND        PRES    WAVE   SWELL
                       AIR SEA DIR/SP/G            HT/PER HT/PER/DIR
                 (UTC) (F)     (DEG/KT/KT) (MB)    (FT/S) (FT/S/D)
UPR LAKE MARION  NOT AVBL
WINYAH BAY       2100   67      70/ 15     1002.0
LAKE MURRAY      2100   68      30/  6/ 10 1002.4R
ACE BASIN NERRS  NOT AVBL
FORT PULASKI     2100   85 70  260/ 15/ 19 1003.1S
SAPELO ISLAND    2200   87     270/ 14     1003.0S

$$

ANZ835-935-AMZ111-154-330-350-352-354-370-450-454-472-262300-
...C-MAN AND BUOY OBSERVATIONS...

STATION/POSITION TIME  TEMP    WIND        PRES    WAVE   SWELL
                       AIR SEA DIR/SP/G            HT/PER HT/PER/DIR
                 (UTC) (F)     (DEG/KT/KT) (MB)    (FT/S) (FT/S/D)
BUOY 41004       2150   74 72  220/ 16/ 17 1001.2F   5/ 6   2/11
BUOY 41008       2150   80 73  250/ 10/ 14 1003.5F   2/ 5   2/200/12
FOLLY BEACH CMAN 2200   74     220/ 12/ 16 1002.0R
CAPERS NEARSHORE 2108   73     230/ 16/ 19 1001.5F
FRIPP NEARSHORE  2100   79     360/ 12/ 12 1001.8F


STATION/POSITION TIME  TEMP    WIND        PRES    WAVE   SWELL
                       AIR SEA DIR/SP/G            HT/PER HT/PER/DIR
                 (UTC) (F)     (DEG/KT/KT) (MB)    (FT/S) (FT/S/D)
5E ST. MARYS GA  2121      71                N/A     1/13
FRYING PAN BUOY  2150   63 71   40/ 14/ 17 1004.3R   5/ 8   3/200/ 8
BUOY 41025       2150   55 77  360/ 21/ 25 1003.6R   8/10
CAPE LOOKOUT NC  2200   54     360/ 12/ 15 1004.6R
BUOY 41002       2150   72 71  300/ 14/ 17 1002.6R   8/ 8   7/230/ 8
BUOY 41010       2120   80 79  260/ 12/ 14 1006.5F
ST AUGUSTINE FL  2200   86 68  250/ 14/ 17 1005.4R


$$



USA.gov is the U.S. government's official web portal to all federal, state and local government web resources and services.